RH
56 55 55 60 57 58 72 90 58 48 48 53 71 86 73 48 50 44 43 50 54 59 49 53 52 65 66 43 50 75 78 91 100 61 95 92 93 95 93 97 93 79 85 97
57 56 55 60 58 58 92 97 64 52 45 58 57 49 46 45 43 43 44 58 49 46 54 72 76 53 41 42 58 70 66 86 93 74 91 83 91 93 93 88 96 95 95 97
56 59 58 56 61 58 89 92 64 61 56 52 64 65 54 54 44 45 43 44 45 51 56 54 70 56 53 51 45 39 46 86 77 94 81 87 94 92 93 92 96 95 97 94
59 58 61 62 60 59 87 72 67 71 80 67 78 75 59 58 59 46 44 50 59 72 80 74 62 58 63 52 45 45 62 89 85 61 50 86 90 94 94 94 96 95 97 95
60 59 59 66 62 59 80 84 77 81 92 75 68 56 55 60 55 52 57 74 62 76 85 80 92 92 79 74 57 60 55 83 83 72 68 84 86 83 94 94 95 95 95 96
62 56 68 64 67 67 94 86 87 96 82 79 70 63 63 57 54 51 52 58 82 77 79 74 70 71 75 79 83 64 80 96 95 94 58 70 84 96 92 95 94 96 96 97
58 58 66 65 63 69 89 92 98 99 87 67 60 59 80 74 57 61 50 54 85 66 59 56 54 56 53 62 66 56 90 94 89 95 71 94 96 89 79 92 95 94 91 94
61 63 68 60 58 63 97 94 100 98 96 73 69 68 70 65 72 74 59 52 50 51 61 72 68 50 48 54 54 60 68 80 95 95 96 91 90 92 93 94 96 95 94 93
56 56 64 66 64 59 92 94 97 100 98 93 63 77 71 97 91 81 56 51 42 60 58 74 95 83 60 71 78 46 41 63 89 92 98 97 94 77 77 94 94 93 94 92
70 69 66 67 66 64 87 98 92 100 98 91 75 88 90 91 93 97 81 93 64 57 66 77 92 91 81 86 88 75 67 91 95 95 100 99 94 89 74 93 100 83 87 94
71 70 69 63 64 68 87 96 93 99 98 95 83 83 91 94 96 98 92 80 85 84 92 93 92 90 95 91 97 99 94 100 100 97 99 97 88 67 82 96 87 89 84 87
62 61 60 59 54 62 70 100 86 86 99 90 66 64 70 70 74 95 94 94 92 94 97 96 94 86 91 95 96 92 95 99 99 96 95 95 99 98 98 98 98 88 89 81
56 54 59 57 63 62 70 93 99 100 97 91 78 84 90 82 83 95 97 95 86 97 94 98 98 99 98 100 100 100 97 99 99 95 96 97 96 84 87 88 94 84 79 75
55 61 66 62 63 68 77 98 98 99 89 81 91 66 82 83 89 91 87 84 75 86 95 98 98 97 86 98 94 95 98 92 100 100 96 96 94 96 97 91 82 79 81 76
61 66 64 60 59 76 98 99 100 99 86 90 94 77 76 93 94 96 94 95 92 98 97 97 99 97 91 98 92 100 100 99 99 99 98 98 96 95 93 96 98 95 96 92
59 66 60 69 68 80 82 99 95 91 76 95 97 80 82 94 87 76 78 78 90 98 96 99 100 97 97 100 100 98 99 98 97 98 98 97 96 95 98 100 99 98 99 98
57 56 64 71 74 93 96 94 98 86 86 95 95 92 53 70 97 92 83 83 97 96 98 99 98 95 85 97 100 97 98 98 98 98 95 97 96 96 94 100 99 100 99 99
59 55 62 64 61 72 92 87 83 80 84 78 97 92 61 47 71 94 97 98 96 95 99 97 98 88 87 99 99 100 97 96 95 96 98 96 96 97 93 99 98 97 100 100
52 50 58 71 79 94 89 61 65 80 77 97 94 94 97 56 67 83 95 95 95 90 96 97 77 85 100 98 100 99 98 99 98 96 94 93 96 94 96 94 93 99 98 98
45 63 62 90 73 50 70 69 81 81 85 90 96 65 94 77 70 94 91 96 97 100 96 79 90 100 98 98 98 98 97 98 97 94 87 86 87 93 93 93 94 96 95 96
74 77 78 54 51 60 70 92 92 89 96 86 87 88 92 77 98 99 98 98 96 99 97 90 97 100 98 97 97 97 95 92 90 85 85 81 86 94 92 86 83 83 86 91
55 62 61 57 68 80 78 96 82 94 99 93 97 85 79 86 87 97 96 97 92 100 90 90 100 99 97 95 96 95 88 72 74 67 72 69 63 72 80 78 79 79 77 74
63 65 78 83 88 89 96 100 97 100 97 96 96 93 92 89 86 98 95 94 100 81 94 100 100 97 93 92 79 68 66 71 71 70 67 70 68 71 75 79 79 81 85 80
90 87 99 93 100 99 99 100 99 92 92 92 97 99 98 96 97 97 94 96 88 97 98 100 99 98 94 80 68 76 78 79 86 84 84 83 80 77 78 76 81 89 90 78
96 88 100 99 92 94 97 94 89 81 78 91 97 97 90 96 96 85 88 92 99 95 99 98 98 97 89 84 74 82 83 91 97 95 96 94 94 93 93 82 80 82 85 85
85 84 94 81 94 95 95 96 96 83 81 86 94 98 96 99 98 94 100 95 98 98 97 96 97 96 94 92 82 81 84 88 92 90 86 80 91 90 93 89 87 90 88 90
87 94 77 90 96 97 94 88 80 67 93 100 96 97 100 90 94 99 98 100 98 96 90 79 94 96 94 96 91 88 88 86 88 88 81 86 88 84 88 92 80 80 77 96
Wind_Speed
15 17 20 20 23 26 9 4 3 5 4 5 2 2 4 4 5 5 4 4 3 4 9 7 11 5 5 4 2 1 5 3 5 7 13 10 9 5 5 4 2 9 5 5
14 15 18 19 20 23 2 4 3 5 6 2 3 5 5 6 2 2 2 3 3 8 7 5 8 6 8 11 2 3 5 3 4 7 5 6 6 11 9 12 4 6 7 6
14 14 14 16 18 20 4 3 4 5 5 2 3 4 4 4 5 3 2 4 5 8 8 7 6 5 5 10 8 8 6 0 7 5 8 5 5 10 12 6 4 2 6 9
14 14 14 15 14 18 4 3 2 1 5 5 7 4 5 10 6 3 4 3 4 5 6 8 4 7 6 5 7 4 4 2 3 12 7 9 9 7 12 11 8 4 6 6
13 12 13 13 12 12 4 2 2 4 4 4 6 8 10 9 4 2 5 3 7 1 4 7 7 1 2 6 4 5 3 3 4 5 14 15 15 13 8 10 9 7 8 7
15 15 16 11 10 5 1 2 2 3 4 3 3 3 7 10 7 3 4 4 1 5 4 6 10 9 7 8 1 2 0 2 3 5 5 10 10 9 10 8 11 5 6 5
16 15 14 13 12 7 3 3 2 2 4 3 5 4 1 5 9 8 5 3 3 6 5 7 8 8 11 7 8 6 3 1 2 4 7 6 3 7 15 15 9 9 8 9
15 13 16 14 15 12 2 3 3 3 4 4 6 5 4 6 5 3 6 3 5 2 5 3 5 4 2 4 4 4 4 2 2 2 4 4 2 4 3 3 7 9 8 11
16 17 16 16 16 13 2 4 4 3 2 6 4 3 2 3 2 4 3 4 2 1 1 1 2 2 4 2 3 5 3 3 4 4 3 1 3 11 9 8 3 10 10 12
18 18 17 16 17 18 5 3 6 2 3 4 5 3 4 2 1 2 3 5 6 0 1 2 0 3 3 2 3 4 4 5 4 3 3 2 4 13 8 5 4 9 10 8
19 17 16 17 17 17 5 3 6 5 4 3 4 6 4 2 2 3 4 2 1 3 4 2 3 2 2 5 3 2 2 2 2 1 4 3 11 3 4 3 6 7 9 9
19 20 21 17 18 18 12 3 2 4 3 3 1 3 4 6 7 4 2 0 1 1 2 2 0 3 4 2 0 4 2 3 3 2 4 4 2 5 2 3 4 7 7 8
22 20 16 18 17 16 10 3 1 1 2 1 2 2 3 8 5 2 2 2 1 2 4 3 2 5 2 2 1 3 5 3 3 3 3 4 5 6 6 5 4 7 8 7
22 21 17 16 15 12 10 3 4 1 1 2 1 1 6 4 5 3 2 0 1 3 3 3 3 3 3 1 3 4 2 4 2 2 4 5 6 4 2 5 6 6 7 8
20 20 16 17 16 3 4 2 3 4 2 2 4 5 4 5 3 7 8 3 2 2 3 4 2 2 3 2 5 4 2 2 2 3 1 2 1 1 3 3 4 5 5 7
15 16 16 16 11 6 1 2 2 1 3 3 3 3 5 5 6 9 9 4 4 3 4 2 2 3 2 5 3 5 3 1 3 1 3 3 4 2 0 1 4 4 4 4
18 15 9 13 16 7 5 3 2 2 2 3 3 3 2 1 0 1 2 4 3 4 2 3 2 3 5 4 3 4 4 1 2 2 3 3 2 2 6 3 6 6 4 4
15 8 5 7 8 7 5 6 7 2 3 4 3 3 2 6 2 1 1 3 3 4 3 2 2 3 4 4 4 3 4 2 4 5 2 4 4 3 5 2 3 4 4 4
8 2 2 6 5 4 3 6 10 4 5 4 4 5 3 7 3 1 2 2 4 1 3 2 2 3 5 3 3 2 3 2 4 5 4 3 2 3 4 3 5 3 4 4
7 6 4 3 3 7 5 5 5 6 5 5 3 4 3 4 3 2 1 3 2 3 2 2 4 2 3 3 2 2 3 4 4 3 5 5 4 4 4 3 3 2 2 4
4 3 2 2 10 4 4 4 5 4 5 4 3 3 4 3 2 2 1 1 2 4 1 3 3 2 3 3 2 2 4 3 3 1 2 2 2 2 3 5 5 4 5 4
3 3 4 5 7 6 8 4 6 6 4 4 4 5 3 3 2 2 3 2 4 2 1 4 3 1 3 6 4 4 4 4 5 4 4 4 6 3 4 4 4 5 6 6
4 6 7 6 6 13 8 7 6 5 5 4 4 5 3 3 3 2 4 5 2 2 4 3 2 2 4 4 5 6 6 5 6 6 6 6 6 6 4 4 4 5 6 6
6 7 9 6 6 5 3 3 3 3 4 7 6 3 2 2 4 3 4 3 4 4 4 2 1 2 3 5 6 6 7 7 6 7 7 6 5 5 4 4 4 4 5 5
6 7 6 5 4 2 2 3 3 4 4 4 3 3 2 3 4 4 4 5 5 5 3 2 2 3 4 5 7 7 6 5 4 4 4 6 6 4 4 4 4 4 4 5
7 9 5 3 4 5 4 3 3 3 5 4 1 2 5 4 3 5 6 4 4 3 2 2 2 2 4 4 7 7 6 4 4 4 5 6 6 5 5 5 4 4 5 5
7 3 2 2 1 3 4 3 5 6 2 3 4 6 2 3 5 4 4 3 2 3 3 3 3 2 3 4 5 6 5 5 4 5 6 6 6 5 4 4 5 5 5 3
Wind_Direction
359 1 358 358 356 355 18 11 354 284 38 45 81 105 178 231 243 269 290 303 360 353 326 307 310 273 198 299 353 355 240 187 296 292 83 56 59 20 330 309 175 212 128 91
351 354 357 357 354 356 15 328 268 317 70 66 355 343 348 285 322 306 338 317 357 306 305 316 315 313 2 3 24 249 303 326 347 352 5 14 25 17 331 306 233 36 254 101
344 350 351 355 350 350 49 359 352 338 35 26 52 342 277 320 303 271 27 315 326 329 316 298 301 304 334 326 307 22 17 138 138 193 257 264 22 20 345 335 37 50 52 50
342 350 347 346 354 345 64 19 331 151 327 332 319 297 279 292 313 329 14 299 328 330 312 309 265 327 321 315 40 27 89 239 5 301 311 73 51 45 25 39 342 57 76 61
339 334 339 339 344 351 61 59 20 357 280 286 339 318 359 328 312 248 276 343 307 298 207 222 284 327 220 256 332 13 2 271 349 308 77 98 62 41 50 30 7 53 77 66
331 330 330 335 333 37 87 289 332 116 252 273 333 301 334 324 316 277 310 293 324 293 272 258 257 235 222 238 206 280 330 75 7 273 151 181 40 11 71 64 30 358 45 4
328 328 332 325 329 311 158 215 157 201 246 230 271 305 212 301 307 294 271 287 141 249 269 291 276 249 241 219 260 182 143 57 204 269 329 62 112 94 100 86 53 26 36 3
324 324 315 324 323 314 191 179 191 203 229 220 271 260 265 298 295 310 297 219 212 307 326 316 313 330 113 233 210 150 161 132 333 83 52 119 354 41 9 355 65 29 21 11
321 321 326 320 312 311 279 206 196 203 214 221 207 250 251 220 290 322 273 307 291 36 282 316 308 318 359 24 96 4 350 75 116 16 110 234 13 324 324 303 113 26 27 17
313 311 318 323 317 305 299 219 186 228 239 243 142 176 185 168 53 220 321 351 325 176 354 283 33 352 314 29 51 350 358 0 112 1 93 61 332 308 300 58 29 27 26 18
335 336 326 323 327 324 316 254 189 216 222 244 155 157 130 3 116 172 272 338 325 10 46 64 295 59 279 77 26 6 66 67 11 20 76 316 330 28 89 283 27 28 17 12
336 332 326 330 327 334 320 256 211 226 216 187 71 152 196 174 191 153 237 236 327 155 85 33 337 18 14 144 188 337 33 151 147 107 188 209 331 92 23 31 357 20 19 9
327 325 318 329 329 327 329 244 180 1 74 89 73 107 44 49 30 142 249 74 31 34 183 160 181 84 132 89 286 96 352 5 110 104 120 111 79 60 39 26 26 3 357 9
333 334 339 337 329 331 360 201 174 132 70 81 139 76 39 17 7 56 61 348 36 115 75 87 81 99 30 133 150 86 217 357 354 60 23 93 77 57 11 4 12 5 349 355
342 337 339 337 322 38 58 37 24 103 122 125 98 117 34 15 20 53 54 54 74 49 55 46 56 56 67 28 69 17 351 210 97 191 266 234 75 11 6 1 329 334 338 342
343 345 358 353 0 107 272 57 351 303 73 93 138 89 24 35 40 57 49 47 46 74 96 94 29 267 108 87 94 268 313 52 142 209 273 212 285 182 301 291 290 308 305 313
339 349 29 59 67 60 40 358 319 0 48 69 128 94 34 56 306 39 61 36 60 85 87 55 80 11 47 66 91 278 334 344 74 339 352 35 11 272 317 257 277 308 284 278
341 359 84 82 69 64 27 23 14 51 80 42 61 74 40 11 339 56 76 67 43 24 112 45 71 36 61 62 281 323 335 348 42 346 330 222 262 304 319 262 324 350 325 297
350 19 124 43 35 37 291 344 42 39 55 76 46 1 14 341 350 34 62 91 64 199 69 44 74 46 46 240 250 316 318 350 296 323 13 10 30 338 339 351 348 337 310 324
1 45 46 26 319 302 3 15 23 28 19 38 69 353 331 354 333 20 5 61 113 68 35 77 71 75 242 269 275 221 300 314 341 6 358 353 358 351 341 310 285 289 295 298
33 43 63 273 341 41 37 41 54 1 41 30 353 14 330 337 24 317 74 14 132 75 103 95 75 44 307 329 328 283 300 317 337 260 274 328 281 319 326 339 343 348 336 319
78 108 53 23 26 25 65 359 13 39 39 10 354 332 291 294 325 308 338 41 47 93 70 73 69 39 327 15 13 0 359 351 5 356 353 357 341 350 345 342 348 349 342 340
39 40 44 36 334 39 52 359 336 360 353 10 325 325 295 315 357 331 40 64 60 82 50 69 59 347 20 3 17 9 7 15 5 352 0 346 350 348 357 343 348 344 340 336
65 61 27 75 5 34 15 318 303 292 349 328 318 282 317 340 5 355 68 39 42 52 57 73 331 319 3 11 8 359 360 2 352 346 339 332 326 324 325 329 327 331 331 332
62 51 46 49 62 11 289 303 323 327 310 326 321 298 34 351 41 17 28 41 58 39 51 24 336 359 10 2 354 349 346 342 334 325 333 327 318 318 318 316 316 311 312 319
64 43 25 345 33 334 328 315 300 306 307 300 283 28 44 23 45 40 18 62 42 24 359 344 313 22 356 340 345 339 338 336 333 337 334 338 343 342 314 311 322 321 314 315
51 359 348 55 108 254 303 302 322 309 351 27 53 50 328 10 44 42 27 43 344 332 356 344 4 4 331 322 328 329 337 333 341 338 339 326 322 334 348 346 329 335 322 284